Regional Weather Roundup
Issued by NWS

Home | Current Version | Previous Version | Text Only | Print | Product List | Glossary Off
Versions: 1 2 3 4 5 6 7 8 9 10 11 12 13 14 15 16 17 18 19 20 21 22 23 24 25 26 27 28 29 30 31 32 33 34 35 36 37 38 39 40 41 42 43 44 45 46 47 48 49 50

000
ASUS43 KMKX 032110
RWRWI

WISCONSIN REGIONAL WEATHER ROUNDUP
NATIONAL WEATHER SERVICE MILWAUKEE/SULLIVAN WI
300 PM CST TUE MAR 03 2015

NOTE: "FAIR" INDICATES FEW OR NO CLOUDS BELOW 12,000 FEET WITH NO
SIGNIFICANT WEATHER AND/OR OBSTRUCTIONS TO VISIBILITY.

WIZ001-002-006>008-014>016-023>028-032200-
NORTHWEST WISCONSIN

CITY           SKY/WX    TMP DP  RH WIND       PRES   REMARKS
SUPERIOR ARPT  FLURRIES  25  14  63 NW22G31   29.63R WCI  10
ASHLAND        CLOUDY    28  19  69 W13G22    29.57R WCI  17
HAYWARD        LGT SNOW  26  18  71 MISG      29.57S
SIREN          CLOUDY    27  17  67 NW16G25   29.65R WCI  14
CUMBERLAND     FLURRIES  27  19  74 W12G17    29.61R WCI  16
RICE LAKE      FLURRIES  28  20  71 W15       29.63R WCI  17
CHETEK         CLOUDY    28  20  71 W9        29.61R WCI  20
LADYSMITH      CLOUDY    28  20  72 W12       29.59R WCI  18
EAU CLAIRE     CLOUDY    29  19  66 W13       29.62R WCI  19
MENOMONIE      CLOUDY    30  21  68 W14       29.64R WCI  20
NEW RICHMOND   CLOUDY    28  20  71 NW14      29.66R WCI  17
OSCEOLA        CLOUDY    28  20  71 W20G25    29.70R WCI  15
$$

WIZ003>005-009-010-017-018-032200-
NORTH CENTRAL WISCONSIN

CITY           SKY/WX    TMP DP  RH WIND       PRES   REMARKS
MANITOWISH WTR CLOUDY    24  17  77 NW10G21   29.50R WCI  13
ARBOR VITAE    LGT SNOW  25  19  78 W8G17     29.50R WCI  16
WOODRUFF       LGT SNOW  25  19  78 W8G17     29.50R WCI  16
RHINELANDER    CLOUDY    26  18  71 W16       29.50R WCI  14
EAGLE RIVER    LGT SNOW  25  17  73 W13       29.48S WCI  13
LAND O LAKES   LGT SNOW  26  19  74 W12G18    29.48S WCI  15
PHILLIPS       CLOUDY    25  18  76 NW8G16    29.53R WCI  16
TOMAHAWK       LGT SNOW  27  19  71 W13G20    29.53R WCI  16
MEDFORD        FLURRIES  26  19  76 W14G22    29.55R WCI  14
MERRILL        CLOUDY    28  19  67 W14G22    29.53R WCI  17
$$

WIZ029-030-035-036-043>047-032200-
CENTRAL WISCONSIN

CITY           SKY/WX    TMP DP  RH WIND       PRES   REMARKS
WAUSAU         CLOUDY    26  18  71 W18       29.54R WCI  13
MOSINEE        CLOUDY    27  19  74 W17G28    29.57R WCI  14
MARSHFIELD     CLOUDY    28  19  69 NW15      29.58R WCI  16
STEVENS POINT  CLOUDY    26  19  77 W8G16     29.57S WCI  17
WAUPACA        CLOUDY    29  23  76 W10       29.58R WCI  20
WAUTOMA        CLOUDY    28  23  81 NW17      29.60R WCI  16
WISC RAPIDS    CLOUDY    28  20  71 W14G21    29.61R WCI  17
CAMP DOUGLAS   CLOUDY    28  28 100 W15       29.62R WCI  17
$$

WIZ011>013-019>022-031-037>040-048>050-032200-
NORTHEAST WISCONSIN

CITY           SKY/WX    TMP DP  RH WIND       PRES   REMARKS
ANTIGO         CLOUDY    25  18  73 W12       29.51R WCI  14
SHAWANO        CLOUDY    30  22  73 W9        29.55S WCI  22
OCONTO         CLOUDY    28  23  81 W15       29.54S WCI  16
STURGEON BAY   CLOUDY    27  23  86 W14       29.54S WCI  15
GREEN BAY      CLOUDY    28  23  81 W15       29.55S WCI  16
MANITOWOC      CLOUDY    29  25  85 W17G25    29.56R WCI  17
APPLETON       CLOUDY    27  21  80 W17G23    29.57R WCI  14
CLINTONVILLE   CLOUDY    28  21  74 W12G20    29.56S WCI  18
OSHKOSH        CLOUDY    28  22  78 W14G21    29.58R WCI  17
$$

WIZ032>034-041-042-053>061-032200-
SOUTHWEST WISCONSIN

CITY           SKY/WX    TMP DP  RH WIND       PRES   REMARKS
LA CROSSE      CLOUDY    33  24  69 W13       29.66R WCI  24
SPARTA         CLOUDY    30  23  74 W13       29.65R WCI  20
VIROQUA        CLOUDY    30  24  79 NW14      29.63S WCI  19
BOSCOBEL       CLOUDY    32  24  72 W9        29.68R WCI  24
PRAIRIE DU CHI CLOUDY    32  24  71 W14       29.68R WCI  22
PLATTEVILLE    CLOUDY    32  27  83 W12       29.66R WCI  23
$$

WIZ056-057-062-063-064-067-068-032200-
SOUTH CENTRAL WISCONSIN

CITY           SKY/WX    TMP DP  RH WIND       PRES   REMARKS
REEDSBURG      CLOUDY    29  23  79 W13G20    29.62R WCI  19
BARABOO/DELLS  CLOUDY    28  23  79 NW9       29.62R WCI  20
LONE ROCK      CLOUDY    31  23  72 W14       29.65R WCI  21
MINERAL POINT  CLOUDY    32  28  86 W10       29.64R WCI  24
MADISON        CLOUDY    31  24  75 NW9       29.63R WCI  23
MIDDLETON      CLOUDY    32  26  79 W13       29.64R WCI  22
WATERTOWN      CLOUDY    31  27  86 W13G23    29.61R WCI  21
MONROE         CLOUDY    32  30  93 W21       29.63R WCI  20
JANESVILLE     CLOUDY    34  30  86 W15       29.63R WCI  24
$$

WIZ051-052-058>065-066-070>072-032200-
SOUTHEAST WISCONSIN

CITY           SKY/WX    TMP DP  RH WIND       PRES   REMARKS
MILWAUKEE      CLOUDY    33  26  75 W12       29.60R WCI  24
WAUKESHA       CLOUDY    28  27  93 W12G23    29.59S WCI  18
MILWAUKEE/TIMM CLOUDY    32  27  80 W12G21    29.59R WCI  23
RACINE         CLOUDY    33  27  78 W14G21    29.62R WCI  23
BURLINGTON     CLOUDY    31  27  87 W10       29.62R WCI  22
KENOSHA        CLOUDY    33  28  81 W20G25    29.61R WCI  21
FOND DU LAC    CLOUDY    29  23  78 W17       29.58R WCI  17
SHEBOYGAN      CLOUDY    30  23  75 W18G31    29.56R WCI  18
WEST BEND      CLOUDY    30  25  80 W20G25    29.57R WCI  18
JUNEAU         CLOUDY    29  25  85 W12G18    29.61R WCI  19
$$

LSZ147-162-032200-
LAKE SUPERIOR

STATION/POSITION TIME  TEMP    WIND        PRES    WAVE
                       AIR SEA DIR/SP/G            HT/PER
                 (UTC) (F)     (DEG/KT/KT) (MB)    (FT/S)
DEVILS ISLAND    2100   26     230/ 20/ 23 1000.6S
PORT WING        2100   26     280/ 23     1002.0
SAXON HARBOR     2040   29     260/  2/ 15 1001.0F
$$

LMZ867-665-643>646-032200-
LAKE MICHIGAN

STATION/POSITION TIME  TEMP    WIND        PRES    WAVE
                       AIR SEA DIR/SP/G            HT/PER
                 (UTC) (F)     (DEG/KT/KT) (MB)    (FT/S)
NORTHPORT PIER   2008   28     220/  2/ 12  999.7F
SISTER BAY       2013   30     260/ 13/ 16   N/A
KEWAUNEE LAKESHO 2000   29     260/ 14/ 19  999.3F
SHEBOYGAN LAKESH 2100   31     270/  7/  9 1002.3R
PORT WASHINGTON  2000   32     250/  3/  5 1002.4F
MILWAUKEE LAKESH 2000   32     260/ 10/ 14   N/A
KENOSHA   LAKESH 2100   34     260/ 15/ 21 1003.4R
$$

TC  - TEMPERATURE IN CELSIUS
VSB - VISIBILITY IN STATUTE MILES
WCI - WIND CHILL INDEX
HX  - HEAT INDEX




USA.gov is the U.S. government's official web portal to all federal, state and local government web resources and services.